Time,TemperatureF,DewpointF,PressureIn,WindDirection,WindDirectionDegrees,WindSpeedMPH,WindSpeedGustMPH,Humidity,HourlyPrecipIn,Conditions,Clouds,dailyrainin,SoftwareType,DateUTC
2013-09-25 01:53:00,66.0,-99.9,-100.00,East,82,6.0,6.0,-999,-99.99,,,-99.99,,2013-09-25 07:53:00,
2013-09-25 02:00:00,63.0,-99.9,-100.00,East,92,5.0,7.0,-999,-99.99,,,-99.99,,2013-09-25 08:00:00,
2013-09-25 02:12:00,63.0,-99.9,-100.00,East,89,4.0,4.0,-999,-99.99,,,-99.99,,2013-09-25 08:12:00,
2013-09-25 02:53:00,63.0,-99.9,-100.00,East,92,5.0,7.0,-999,-99.99,,,-99.99,,2013-09-25 08:53:00,
2013-09-25 03:40:00,58.0,-99.9,-100.00,NE,54,1.0,2.0,-999,-99.99,,,-99.99,,2013-09-25 09:40:00,
2013-09-25 04:23:00,58.0,-99.9,-100.00,NE,54,1.0,2.0,-999,-99.99,,,-99.99,,2013-09-25 10:23:00,
2013-09-25 04:32:00,58.0,-99.9,-100.00,NE,54,1.0,2.0,-999,-99.99,,,-99.99,,2013-09-25 10:32:00,
2013-09-25 05:43:00,55.0,-99.9,-100.00,SW,230,1.0,1.0,-999,-99.99,,,-99.99,,2013-09-25 11:43:00,
2013-09-25 05:52:00,55.0,-99.9,-100.00,SW,230,1.0,1.0,-999,-99.99,,,-99.99,,2013-09-25 11:52:00,
2013-09-25 06:30:00,54.0,-99.9,-100.00,NW,304,1.0,1.0,-999,-99.99,,,-99.99,,2013-09-25 12:30:00,
2013-09-25 07:00:00,54.0,-99.9,-100.00,SSE,166,1.0,2.0,-999,-99.99,,,-99.99,,2013-09-25 13:00:00,
2013-09-25 07:12:00,54.0,-99.9,-100.00,NW,304,1.0,1.0,-999,-99.99,,,-99.99,,2013-09-25 13:12:00,
2013-09-25 07:22:00,54.0,-99.9,-100.00,NW,304,1.0,1.0,-999,-99.99,,,-99.99,,2013-09-25 13:22:00,
2013-09-25 07:52:00,54.0,-99.9,-100.00,SSE,166,1.0,2.0,-999,-99.99,,,-99.99,,2013-09-25 13:52:00,
2013-09-25 08:43:00,56.0,-99.9,-100.00,South,179,0.0,0.0,-999,-99.99,,,-99.99,,2013-09-25 14:43:00,
2013-09-25 08:52:00,62.0,-99.9,-100.00,ESE,108,1.0,1.0,-999,-99.99,,,-99.99,,2013-09-25 14:52:00,
2013-09-25 09:02:00,62.0,-99.9,-100.00,ESE,108,1.0,1.0,-999,-99.99,,,-99.99,,2013-09-25 15:02:00,
2013-09-25 11:20:00,80.0,-99.9,-100.00,SE,124,5.0,6.0,-999,-99.99,,,-99.99,,2013-09-25 17:20:00,
2013-09-25 11:52:00,79.0,-99.9,-100.00,SE,140,2.0,3.0,-999,-99.99,,,-99.99,,2013-09-25 17:52:00,
2013-09-25 12:13:00,80.0,-99.9,-100.00,SE,124,5.0,6.0,-999,-99.99,,,-99.99,,2013-09-25 18:13:00,
2013-09-25 13:53:00,84.0,-99.9,-100.00,SE,146,1.0,4.0,-999,-99.99,,,-99.99,,2013-09-25 19:53:00,
2013-09-25 14:03:00,84.0,-99.9,-100.00,SE,146,1.0,4.0,-999,-99.99,,,-99.99,,2013-09-25 20:03:00,
2013-09-25 14:12:00,84.0,-99.9,-100.00,SE,146,1.0,4.0,-999,-99.99,,,-99.99,,2013-09-25 20:12:00,
2013-09-25 14:45:00,85.0,-99.9,-100.00,SW,227,3.0,6.0,-999,-99.99,,,-99.99,,2013-09-25 20:45:00,
2013-09-25 16:14:00,87.0,-99.9,-100.00,SE,134,1.0,4.0,-999,-99.99,,,-99.99,,2013-09-25 22:14:00,
2013-09-25 16:23:00,87.0,-99.9,-100.00,SSE,157,2.0,3.0,-999,-99.99,,,-99.99,,2013-09-25 22:23:00,
2013-09-25 16:33:00,87.0,-99.9,-100.00,SSE,157,2.0,3.0,-999,-99.99,,,-99.99,,2013-09-25 22:33:00,
2013-09-25 16:43:00,87.0,-99.9,-100.00,SSE,157,2.0,3.0,-999,-99.99,,,-99.99,,2013-09-25 22:43:00,
2013-09-25 17:10:00,87.0,-99.9,-100.00,SE,142,2.0,2.0,-999,-99.99,,,-99.99,,2013-09-25 23:10:00,
2013-09-25 17:12:00,87.0,-99.9,-100.00,East,98,3.0,3.0,-999,-99.99,,,-99.99,,2013-09-25 23:12:00,
2013-09-25 17:23:00,87.0,-99.9,-100.00,SSW,192,2.0,3.0,-999,-99.99,,,-99.99,,2013-09-25 23:23:00,
2013-09-25 17:34:00,87.0,-99.9,-100.00,SSW,192,2.0,3.0,-999,-99.99,,,-99.99,,2013-09-25 23:34:00,
2013-09-25 17:53:00,87.0,-99.9,-100.00,SE,142,2.0,2.0,-999,-99.99,,,-99.99,,2013-09-25 23:53:00,
2013-09-25 18:02:00,87.0,-99.9,-100.00,SE,142,2.0,2.0,-999,-99.99,,,-99.99,,2013-09-26 00:02:00,
2013-09-25 19:10:00,81.0,-99.9,-100.00,SE,143,2.0,2.0,-999,-99.99,,,-99.99,,2013-09-26 01:10:00,
2013-09-25 19:50:00,78.0,-99.9,-100.00,East,84,3.0,4.0,-999,-99.99,,,-99.99,,2013-09-26 01:50:00,
2013-09-25 19:52:00,81.0,-99.9,-100.00,SE,143,2.0,2.0,-999,-99.99,,,-99.99,,2013-09-26 01:52:00,
2013-09-25 20:02:00,81.0,-99.9,-100.00,SE,143,2.0,2.0,-999,-99.99,,,-99.99,,2013-09-26 02:02:00,
2013-09-25 20:22:00,80.0,-99.9,-100.00,ESE,110,4.0,5.0,-999,-99.99,,,-99.99,,2013-09-26 02:22:00,